Hourly Weather Roundup
Issued by NWS Central Illinois

Home | Current Version | Previous Version | Text Only | Print | Product List | Glossary On
Versions: 1 2 3 4 5 6 7 8 9 10 11 12 13 14 15 16 17 18 19 20 21 22 23 24 25 26 27 28 29 30 31 32 33 34 35 36 37 38 39 40 41 42 43 44 45 46 47 48 49 50
064
NZUS43 KILX 211910
HWRILX

Area Weather Roundup
National Weather Service Lincoln IL
200 PM CDT MON AUG 21 2017

NOTE:  "FAIR" indicates few or no clouds below 12,000 feet, with
       no sigificant weather and/or obstructions to visibility.


CITY           SKY/WX    TMP DP  RH WIND       PRES   REMARKS
Bloomington    CLOUDY    76  70  82 S7        30.07S
Champaign      PTSUNNY   81  68  64 E6        30.08F HX  84
Danville       PTSUNNY   78  73  85 CALM      30.06F HX  80
Decatur        CLOUDY    79  69  71 E5        30.08F HX  81
Effingham      MOSUNNY   84  76  77 N8        30.09S HX  93
Flora          MOSUNNY   87  79  77 S7        30.07F HX 101
Galesburg      MOSUNNY   74  69  86 S9G16     30.03S
Jacksonville   MOSUNNY   78  70  77 SE7       30.08F HX  80
Lacon          CLOUDY    75  72  91 SW3       30.00R
Lawrenceville  MOSUNNY   87  75  67 S9        30.08F HX  96
Litchfield     CLOUDY    80  73  76 NE7       30.08S HX  85
$$


CITY           SKY/WX    TMP DP  RH WIND       PRES   REMARKS
Lincoln        CLOUDY    77  71  82 S3        30.06F
Macomb         CLOUDY    72  69  92 S8        30.06F
Mattoon        MOSUNNY   74  71  91 SE8       30.09R
Mt Carmel AP   MOSUNNY   85  75  74 S6        30.08F HX  93
Olney-Noble AP PTSUNNY   87  79  78 CALM      30.08S HX 101
Paris AP       CLOUDY    83  75  78 CALM      30.10S THUNDER HX  90
Peoria         CLOUDY    74  72  93 S16G24    30.03F
Pontiac        CLOUDY    75  74  96 CALM      30.03F
Rantoul        MOSUNNY   82  70  68 SE6       30.06F HX  86
Robinson       PTSUNNY   83  75  78 S3        30.09S HX  90
Springfield    CLOUDY    81  71  71 SE3       30.07F HX  85
Taylorville    MOSUNNY   81  70  68 E5        30.08F HX  85
$$

...REGIONAL REPORTS...


CITY           SKY/WX    TMP DP  RH WIND       PRES   REMARKS
Chicago O`Hare CLOUDY    80  71  74 S6        30.03F HX  84
Kankakee       CLOUDY    77  71  80 SE6       30.02F
Moline         CLOUDY    76  68  76 SE6       29.99F
Mount Sterling PTSUNNY   73  71  93 S8        30.08R
Mount Vernon     N/A     88  79  74 S6        30.08F HX 103
Pittsfield     MOSUNNY   77  73  88 CALM      30.10F
Quincy         CLOUDY    78  71  79 SW3       30.08R HX  80
Rockford       CLOUDY    76  71  85 NW5       30.02F
$$


CITY           SKY/WX    TMP DP  RH WIND       PRES   REMARKS
Burlington     CLOUDY    73  71  93 S17G26    30.04R
Cedar Rapids   CLOUDY    71  67  87 VRB5      29.96F
Des Moines     CLOUDY    75  68  78 S10       29.97F
Kirksville     LGT RAIN  71  32  23 E12       30.05F
Ottumwa        PTSUNNY   79  69  71 S21G32    30.00R HX  81
St Louis       PTSUNNY   91  75  59 VRB7      30.06F HX 101
$$


CITY           SKY/WX    TMP DP  RH WIND       PRES   REMARKS
Terre Haute    CLOUDY    83  74  74 W3        30.08F THUNDER HX  89
Evansville     SUNNY     88  71  57 S6        30.09F HX  94
Indianapolis   PTSUNNY   87  72  60 SW9       30.08F HX  93
Lafayette      CLOUDY    80  70  71 W3        30.08F HX  83
Madison        CLOUDY    75  70  84 S7        29.99F
Milwaukee      CLOUDY    78  70  76 E5        30.00F HX  80
$$






USA.gov is the U.S. government's official web portal to all federal, state and local government web resources and services.